Time,TemperatureF,DewpointF,PressureIn,WindDirection,WindDirectionDegrees,WindSpeedMPH,WindSpeedGustMPH,Humidity,HourlyPrecipIn,Conditions,Clouds,dailyrainin,SoftwareType,DateUTC
2013-01-30 00:09:00,29.4,28.0,30.06,SSW,195,5.0,17.0,93,0.00,,,0.00,weatherlink.com 1.10,2013-01-30 05:09:00,
2013-01-30 00:24:00,30.5,29.0,30.05,SW,225,9.0,14.0,93,0.00,,,0.00,weatherlink.com 1.10,2013-01-30 05:24:00,
2013-01-30 00:39:00,30.5,29.0,30.03,SSW,194,7.0,14.0,92,0.00,,,0.00,weatherlink.com 1.10,2013-01-30 05:39:00,
2013-01-30 00:54:00,30.8,29.0,30.03,SSW,198,5.0,14.0,92,0.00,,,0.00,weatherlink.com 1.10,2013-01-30 05:54:00,
2013-01-30 01:09:00,31.0,29.0,30.02,SW,216,4.0,11.0,93,0.00,,,0.00,weatherlink.com 1.10,2013-01-30 06:09:00,
2013-01-30 01:24:00,32.0,31.0,30.02,SSW,194,9.0,16.0,94,0.00,,,0.00,weatherlink.com 1.10,2013-01-30 06:24:00,
2013-01-30 01:39:00,32.6,31.0,30.02,SSW,195,7.0,14.0,94,0.00,,,0.00,weatherlink.com 1.10,2013-01-30 06:39:00,
2013-01-30 01:55:00,32.8,31.0,30.01,SSW,194,7.0,14.0,93,0.00,,,0.00,weatherlink.com 1.10,2013-01-30 06:55:00,
2013-01-30 02:09:00,32.5,31.0,30.00,SSW,205,6.0,14.0,94,0.00,,,0.00,weatherlink.com 1.10,2013-01-30 07:09:00,
2013-01-30 02:25:00,33.0,32.0,29.99,SW,236,12.0,15.0,95,0.00,,,0.00,weatherlink.com 1.10,2013-01-30 07:25:00,
2013-01-30 02:54:00,33.6,32.0,29.97,SSW,205,5.0,10.0,95,0.00,,,0.00,weatherlink.com 1.10,2013-01-30 07:54:00,
2013-01-30 03:10:00,34.1,33.0,29.96,SSW,209,7.0,11.0,95,0.00,,,0.00,weatherlink.com 1.10,2013-01-30 08:10:00,
2013-01-30 03:25:00,34.6,33.0,29.95,SSW,207,6.0,8.0,95,0.00,,,0.00,weatherlink.com 1.10,2013-01-30 08:25:00,
2013-01-30 03:40:00,35.0,34.0,29.93,SSW,208,7.0,11.0,95,0.00,,,0.00,weatherlink.com 1.10,2013-01-30 08:40:00,
2013-01-30 03:55:00,35.3,34.0,29.93,SW,219,3.0,9.0,95,0.00,,,0.00,weatherlink.com 1.10,2013-01-30 08:55:00,
2013-01-30 04:10:00,35.5,34.0,29.92,SSW,209,7.0,10.0,95,0.00,,,0.00,weatherlink.com 1.10,2013-01-30 09:10:00,
2013-01-30 04:25:00,35.8,35.0,29.91,South,179,5.0,10.0,95,0.00,,,0.00,weatherlink.com 1.10,2013-01-30 09:25:00,
2013-01-30 04:40:00,36.1,35.0,29.91,SSW,199,4.0,10.0,96,0.00,,,0.00,weatherlink.com 1.10,2013-01-30 09:40:00,
2013-01-30 04:55:00,36.1,35.0,29.91,SSW,197,5.0,9.0,95,0.03,,,0.03,weatherlink.com 1.10,2013-01-30 09:55:00,
2013-01-30 05:25:00,36.8,36.0,29.89,WSW,246,4.0,11.0,96,0.06,,,0.06,weatherlink.com 1.10,2013-01-30 10:25:00,
2013-01-30 05:40:00,37.5,37.0,29.89,South,188,4.0,14.0,96,0.07,,,0.07,weatherlink.com 1.10,2013-01-30 10:40:00,
2013-01-30 05:56:00,36.9,36.0,29.87,SSW,198,5.0,13.0,95,0.06,,,0.09,weatherlink.com 1.10,2013-01-30 10:56:00,
2013-01-30 06:10:00,36.1,35.0,29.86,South,179,9.0,11.0,95,0.06,,,0.11,weatherlink.com 1.10,2013-01-30 11:10:00,
2013-01-30 06:26:00,36.0,35.0,29.85,SSW,202,5.0,12.0,96,0.06,,,0.12,weatherlink.com 1.10,2013-01-30 11:26:00,
2013-01-30 06:41:00,36.1,35.0,29.84,South,190,8.0,11.0,96,0.06,,,0.13,weatherlink.com 1.10,2013-01-30 11:41:00,
2013-01-30 06:56:00,34.3,33.0,29.84,SSW,194,5.0,13.0,94,0.04,,,0.13,weatherlink.com 1.10,2013-01-30 11:56:00,
2013-01-30 07:11:00,33.7,33.0,29.82,SSW,193,12.0,16.0,95,0.03,,,0.14,weatherlink.com 1.10,2013-01-30 12:11:00,
2013-01-30 07:26:00,35.3,34.0,29.82,South,175,10.0,12.0,96,0.02,,,0.14,weatherlink.com 1.10,2013-01-30 12:26:00,
2013-01-30 07:41:00,36.6,36.0,29.80,South,186,5.0,12.0,97,0.02,,,0.15,weatherlink.com 1.10,2013-01-30 12:41:00,
2013-01-30 08:11:00,36.3,35.0,29.80,South,180,6.0,11.0,96,0.03,,,0.17,weatherlink.com 1.10,2013-01-30 13:11:00,
2013-01-30 08:26:00,34.4,33.0,29.79,South,180,5.0,16.0,95,0.04,,,0.18,weatherlink.com 1.10,2013-01-30 13:26:00,
2013-01-30 08:41:00,35.0,34.0,29.78,SSW,213,8.0,15.0,96,0.03,,,0.18,weatherlink.com 1.10,2013-01-30 13:41:00,
2013-01-30 08:56:00,34.4,33.0,29.77,SW,216,5.0,12.0,96,0.03,,,0.19,weatherlink.com 1.10,2013-01-30 13:56:00,
2013-01-30 09:11:00,35.1,34.0,29.77,South,184,8.0,11.0,96,0.02,,,0.19,weatherlink.com 1.10,2013-01-30 14:11:00,
2013-01-30 09:26:00,38.2,38.0,29.75,SSE,167,1.0,13.0,97,0.02,,,0.20,weatherlink.com 1.10,2013-01-30 14:26:00,
2013-01-30 09:42:00,44.0,43.0,29.74,West,265,7.0,15.0,97,0.03,,,0.21,weatherlink.com 1.10,2013-01-30 14:42:00,
2013-01-30 09:57:00,45.1,43.0,29.71,South,188,8.0,15.0,93,0.04,,,0.23,weatherlink.com 1.10,2013-01-30 14:57:00,
2013-01-30 10:12:00,45.9,44.0,29.70,SW,221,17.0,17.0,93,0.05,,,0.24,weatherlink.com 1.10,2013-01-30 15:12:00,
2013-01-30 10:42:00,47.5,45.0,29.68,SSW,198,0.0,33.0,92,0.03,,,0.25,weatherlink.com 1.10,2013-01-30 15:42:00,
2013-01-30 10:57:00,46.9,45.0,29.68,SSW,198,8.0,25.0,93,0.03,,,0.26,weatherlink.com 1.10,2013-01-30 15:57:00,
2013-01-30 11:12:00,46.3,45.0,29.68,West,260,11.0,21.0,94,0.02,,,0.26,weatherlink.com 1.10,2013-01-30 16:12:00,
2013-01-30 11:27:00,46.0,44.0,29.66,WSW,247,14.0,20.0,94,0.01,,,0.26,weatherlink.com 1.10,2013-01-30 16:27:00,
2013-01-30 11:42:00,46.2,44.0,29.65,North,360,4.0,24.0,93,0.01,,,0.26,weatherlink.com 1.10,2013-01-30 16:42:00,
2013-01-30 11:57:00,46.7,45.0,29.62,SW,233,19.0,19.0,92,0.01,,,0.27,weatherlink.com 1.10,2013-01-30 16:57:00,
2013-01-30 12:27:00,48.3,46.0,29.60,WSW,240,1.0,21.0,92,0.01,,,0.27,weatherlink.com 1.10,2013-01-30 17:27:00,
2013-01-30 12:43:00,48.3,46.0,29.61,SW,223,7.0,28.0,92,0.01,,,0.27,weatherlink.com 1.10,2013-01-30 17:43:00,
2013-01-30 12:57:00,48.8,47.0,29.59,WNW,297,4.0,19.0,92,0.00,,,0.27,weatherlink.com 1.10,2013-01-30 17:57:00,
2013-01-30 13:13:00,49.6,47.0,29.57,SE,128,6.0,23.0,91,0.00,,,0.27,weatherlink.com 1.10,2013-01-30 18:13:00,
2013-01-30 13:28:00,50.2,48.0,29.56,South,185,3.0,15.0,91,0.00,,,0.27,weatherlink.com 1.10,2013-01-30 18:28:00,
2013-01-30 13:43:00,51.2,48.0,29.55,SW,214,17.0,17.0,90,0.00,,,0.27,weatherlink.com 1.10,2013-01-30 18:43:00,
2013-01-30 13:58:00,51.5,48.0,29.54,SW,236,10.0,22.0,89,0.00,,,0.27,weatherlink.com 1.10,2013-01-30 18:58:00,
2013-01-30 14:13:00,51.9,49.0,29.54,SW,218,9.0,23.0,88,0.00,,,0.27,weatherlink.com 1.10,2013-01-30 19:13:00,
2013-01-30 14:28:00,52.0,49.0,29.52,North,5,2.0,24.0,88,0.00,,,0.27,weatherlink.com 1.10,2013-01-30 19:28:00,
2013-01-30 14:43:00,52.6,49.0,29.52,East,99,7.0,20.0,87,0.00,,,0.27,weatherlink.com 1.10,2013-01-30 19:43:00,
2013-01-30 14:58:00,53.2,50.0,29.51,SSE,167,1.0,15.0,87,0.00,,,0.27,weatherlink.com 1.10,2013-01-30 19:58:00,
2013-01-30 15:13:00,53.4,50.0,29.51,SSW,209,5.0,17.0,87,0.00,,,0.27,weatherlink.com 1.10,2013-01-30 20:13:00,
2013-01-30 15:28:00,52.8,50.0,29.50,SSW,205,6.0,15.0,89,0.01,,,0.28,weatherlink.com 1.10,2013-01-30 20:28:00,
2013-01-30 15:43:00,52.0,49.0,29.50,SSW,201,6.0,11.0,90,0.01,,,0.28,weatherlink.com 1.10,2013-01-30 20:43:00,
2013-01-30 15:58:00,52.1,49.0,29.49,SSW,202,4.0,20.0,90,0.01,,,0.28,weatherlink.com 1.10,2013-01-30 20:58:00,
2013-01-30 16:13:00,51.8,49.0,29.50,SW,217,1.0,18.0,90,0.01,,,0.28,weatherlink.com 1.10,2013-01-30 21:13:00,
2013-01-30 16:43:00,50.8,48.0,29.48,WSW,256,9.0,16.0,91,0.00,,,0.28,weatherlink.com 1.10,2013-01-30 21:43:00,
2013-01-30 16:58:00,50.4,48.0,29.47,SW,226,4.0,20.0,92,0.00,,,0.28,weatherlink.com 1.10,2013-01-30 21:58:00,
2013-01-30 17:14:00,50.5,48.0,29.45,South,191,4.0,14.0,92,0.00,,,0.28,weatherlink.com 1.10,2013-01-30 22:14:00,
2013-01-30 17:28:00,51.2,49.0,29.46,SSW,196,6.0,18.0,92,0.00,,,0.28,weatherlink.com 1.10,2013-01-30 22:28:00,
2013-01-30 17:44:00,51.0,49.0,29.47,WSW,240,11.0,22.0,92,0.00,,,0.28,weatherlink.com 1.10,2013-01-30 22:44:00,
2013-01-30 17:59:00,50.6,49.0,29.46,South,173,2.0,22.0,93,0.01,,,0.29,weatherlink.com 1.10,2013-01-30 22:59:00,
2013-01-30 18:29:00,50.7,49.0,29.46,SSW,202,1.0,12.0,95,0.02,,,0.30,weatherlink.com 1.10,2013-01-30 23:29:00,
2013-01-30 18:44:00,50.8,50.0,29.46,SW,232,5.0,14.0,95,0.02,,,0.30,weatherlink.com 1.10,2013-01-30 23:44:00,
2013-01-30 18:59:00,51.0,50.0,29.45,SSW,205,5.0,13.0,95,0.01,,,0.30,weatherlink.com 1.10,2013-01-30 23:59:00,
2013-01-30 19:14:00,51.3,50.0,29.45,WSW,249,6.0,12.0,95,0.00,,,0.30,weatherlink.com 1.10,2013-01-31 00:14:00,
2013-01-30 19:29:00,51.2,50.0,29.44,West,267,2.0,14.0,95,0.01,,,0.31,weatherlink.com 1.10,2013-01-31 00:29:00,
2013-01-30 19:44:00,51.0,50.0,29.43,South,188,3.0,11.0,95,0.02,,,0.32,weatherlink.com 1.10,2013-01-31 00:44:00,
2013-01-30 19:59:00,50.9,50.0,29.43,SSW,204,1.0,18.0,95,0.02,,,0.32,weatherlink.com 1.10,2013-01-31 00:59:00,
2013-01-30 20:14:00,50.7,49.0,29.44,SSW,194,6.0,10.0,95,0.01,,,0.32,weatherlink.com 1.10,2013-01-31 01:14:00,
2013-01-30 20:29:00,50.4,49.0,29.44,East,88,1.0,11.0,96,0.01,,,0.32,weatherlink.com 1.10,2013-01-31 01:29:00,
2013-01-30 20:44:00,50.4,49.0,29.45,West,261,8.0,8.0,96,0.00,,,0.32,weatherlink.com 1.10,2013-01-31 01:44:00,
2013-01-30 20:59:00,50.2,49.0,29.43,ESE,121,0.0,4.0,96,0.00,,,0.32,weatherlink.com 1.10,2013-01-31 01:59:00,
2013-01-30 21:14:00,50.0,49.0,29.42,ESE,111,0.0,5.0,96,0.01,,,0.33,weatherlink.com 1.10,2013-01-31 02:14:00,
2013-01-30 21:29:00,50.1,49.0,29.41,WSW,251,7.0,9.0,96,0.01,,,0.33,weatherlink.com 1.10,2013-01-31 02:29:00,
2013-01-30 21:45:00,50.2,49.0,29.41,South,170,4.0,11.0,96,0.01,,,0.33,weatherlink.com 1.10,2013-01-31 02:45:00,
2013-01-30 21:59:00,50.3,49.0,29.39,South,177,1.0,11.0,96,0.02,,,0.34,weatherlink.com 1.10,2013-01-31 02:59:00,
2013-01-30 22:14:00,50.1,49.0,29.37,South,184,3.0,7.0,95,0.02,,,0.35,weatherlink.com 1.10,2013-01-31 03:14:00,
2013-01-30 22:29:00,50.1,49.0,29.37,SSW,193,0.0,8.0,96,0.02,,,0.35,weatherlink.com 1.10,2013-01-31 03:29:00,
2013-01-30 22:44:00,50.2,49.0,29.37,South,173,2.0,10.0,96,0.02,,,0.35,weatherlink.com 1.10,2013-01-31 03:44:00,
2013-01-30 22:59:00,50.2,49.0,29.36,WSW,252,0.0,5.0,95,0.01,,,0.35,weatherlink.com 1.10,2013-01-31 03:59:00,
2013-01-30 23:14:00,49.9,49.0,29.35,SSW,198,1.0,5.0,95,0.00,,,0.35,weatherlink.com 1.10,2013-01-31 04:14:00,
2013-01-30 23:29:00,49.8,49.0,29.35,SW,234,1.0,7.0,95,0.00,,,0.35,weatherlink.com 1.10,2013-01-31 04:29:00,
2013-01-30 23:44:00,49.7,48.0,29.34,SSW,208,2.0,3.0,95,0.01,,,0.36,weatherlink.com 1.10,2013-01-31 04:44:00,
2013-01-30 23:59:00,49.5,48.0,29.33,SW,233,2.0,9.0,95,0.01,,,0.36,weatherlink.com 1.10,2013-01-31 04:59:00,